[[{"header":{"parameterUnit":"m.s-1","parameterCategory":1,"la1":30.2991,"la2":30.254,"lo1":-89.0895,"lo2":-89.0444,"dy":0.0017,"dx":0.0017,"nx":28,"ny":28,"refTime":"2023-09-27T21:00:00:Z","depth":0,"parameterNumber":2,"parameterNumberName":"U-component_of_WINDS"},"data":[0,0,0,0,0,0,0,0,0,0,0,0,0,0,0,0,0,0,0,0,0,0,0,0,0,0,0,0,0,0,0,0,0,0,0,0,0,0,0,0,0,0,0,0,0,0,0,0,0,0,0,0,0,0,0,0,0,0,-4.2,-4.2,0,-4.2033,-4.2033,-4.2034,-4.1888,-4.1884,-4.188,-4.1876,-4.191,-4.1915,-4.192,0,0,0,0,0,0,0,0,0,0,0,0,0,-4.1811,-4.1816,-4.2,-4.2,-4.2001,-4.2033,-4.2033,-4.2034,-4.1889,-4.1884,-4.1879,-4.1874,-4.1908,-4.1914,-4.192,0,0,0,0,0,0,0,0,0,0,0,0,0,-4.1874,-4.1817,-4.2,-4.1932,-4.1927,-4.2033,-4.2033,-4.2034,-4.189,-4.1884,-4.1877,-4.1872,-4.1907,-4.1914,-4.1921,-4.2093,0,0,-4.1943,-4.1946,0,0,0,0,0,0,0,0,-4.1871,-4.1881,-4.1942,-4.1937,-4.1931,-4.195,-4.1979,-4.2054,-4.1892,-4.1904,-4.1876,-4.1868,-4.1929,-4.1934,-4.1954,-4.2095,-4.2096,-4.1944,-4.1948,-4.1951,-4.1953,0,0,0,0,0,0,0,-4.1866,-4.1879,-4.2013,-4.1943,-4.1936,-4.1901,-4.1902,-4.1993,-4.1952,-4.1902,-4.1892,-4.1898,-4.1924,-4.1947,-4.1954,-4.2097,-4.1944,-4.195,-4.1955,-4.1957,-4.2383,-4.239,0,0,0,0,0,0,-4.1871,-4.1876,-4.2012,-4.2014,-4.1884,-4.1909,-4.1911,-4.195,-4.195,-4.1944,-4.1903,-4.1891,-4.1938,-4.1945,-4.1954,-4.2158,-4.1951,-4.1958,-4.1962,-4.2377,-4.2385,-4.2393,0,0,0,0,0,0,-4.1868,-4.1884,-4.201,-4.1942,-4.1955,-4.1919,-4.1964,-4.1954,-4.1977,-4.1951,-4.1943,-4.1934,-4.1933,-4.1944,-4.206,-4.2157,-4.1961,-4.1968,-4.2368,-4.2379,-4.2389,-4.2566,0,0,0,0,0,0,-4.1863,-4.1884,-4.1949,-4.1945,-4.196,-4.2116,-4.197,-4.196,-4.199,-4.1974,-4.1978,-4.1972,-4.1929,-4.205,-4.2068,-4.2163,-4.1974,-4.236,-4.2373,-4.2385,-4.2551,-4.2581,-4.2606,0,0,0,0,0,-4.1857,-4.1997,-4.1953,-4.197,-4.204,-4.2122,-4.213,-4.2078,-4.1998,-4.2064,-4.2047,-4.1972,-4.2143,-4.2063,-4.2082,-4.2181,-4.2353,-4.2369,-4.2385,-4.2539,-4.2575,-4.2606,0,0,0,0,0,0,-4.2013,-4.1995,-4.1946,-4.2089,-4.2109,-4.2097,-4.2178,-4.2118,-4.2159,-4.2143,-4.2076,-4.2078,-4.2207,-4.2205,-4.2116,-4.2349,-4.2235,-4.2255,-4.2346,-4.238,-4.2407,-4.2405,-4.198,0,0,0,0,0,-4.2064,-4.2133,-4.2113,-4.2241,-4.2253,-4.2215,-4.2248,-4.2206,-4.2223,-4.223,-4.2222,-4.2242,-4.23,-4.2339,-4.2391,-4.255,-4.255,-4.2627,-4.2655,-4.2678,-4.2696,-4.2782,-4.2817,-4.2444,-4.2444,-4.2443,0,0,-4.2171,-4.217,-4.2216,-4.2273,-4.2282,-4.2355,-4.2222,-4.2304,-4.2357,-4.2242,-4.2352,-4.2348,-4.2365,-4.2504,-4.2565,-4.2507,-4.28,-4.2698,-4.2716,-4.2722,-4.2802,-4.2837,-4.2869,-4.2454,-4.2452,-4.2451,0,0,-4.2402,-4.2408,-4.2516,-4.2529,-4.2546,-4.2519,-4.2546,-4.2544,-4.2537,-4.2646,-4.2562,-4.2624,-4.2725,-4.2742,-4.2764,-4.3004,-4.2937,-4.3022,-4.3167,-4.3252,-4.3281,-4.3307,-4.3394,-4.3426,-4.3041,-4.3041,-4.3041,0,-4.2533,-4.2638,-4.2579,-4.2668,-4.2696,-4.2595,-4.2705,-4.272,-4.2754,-4.2776,-4.271,-4.2837,-4.2841,-4.2983,-4.3042,-4.3062,-4.3091,-4.3022,-4.3282,-4.3307,-4.333,-4.3413,-4.3446,-4.3051,-4.305,-4.3049,-4.3048,0,-4.2799,-4.2874,-4.2959,-4.2995,-4.3032,-4.313,-4.3087,-4.3132,-4.3087,-4.3068,-4.3182,-4.3184,-4.3235,-4.3266,-4.3222,-4.3403,-4.3367,-4.3293,-4.3177,-4.3377,-4.3454,-4.3485,-4.3066,-4.3063,-4.306,-4.3057,0,0,-4.3129,-4.3132,-4.3164,-4.318,-4.3192,-4.3249,-4.3344,-4.3394,-4.3435,-4.3462,-4.354,-4.3629,-4.3561,-4.3586,-4.3544,-4.3618,-4.3811,-4.3535,-4.3534,-4.3587,-4.4012,-4.4069,-4.4107,-4.3766,-4.3772,-4.3776,-4.4011,0,-4.3357,-4.3519,-4.347,-4.3634,-4.3703,-4.361,-4.3692,-4.3709,-4.3694,-4.3751,-4.3734,-4.3799,-4.3703,-4.3718,-4.3787,-4.3773,-4.3895,-4.3755,-4.384,-4.3844,-4.384,-4.4146,-4.4206,-4.4428,-4.4041,-4.4046,-4.4049,0,-4.3645,-4.3684,-4.3855,-4.3857,-4.3884,-4.396,-4.4003,-4.4058,-4.4076,-4.406,-4.409,-4.4032,-4.4126,-4.401,-4.4139,-4.4045,-4.4077,-4.4075,-4.4082,-4.4089,-4.396,-4.4163,-4.4497,-4.4531,-4.4096,-4.4092,-4.4089,0,-4.3872,-4.3967,-4.4081,-4.4098,-4.4102,-4.4158,-4.4162,-4.4174,-4.4208,-4.4246,-4.4268,-4.4317,-4.4344,-4.4384,-4.4342,-4.4261,-4.4479,-4.4358,-4.447,-4.4471,-4.4521,-4.4518,-4.4866,-4.454,-4.4539,-4.4538,-4.4538,0,-4.4132,-4.4241,-4.4184,-4.4255,-4.4374,-4.4316,-4.4436,-4.443,-4.4442,-4.451,-4.4432,-4.4499,-4.4438,-4.45,-4.4468,-4.4581,-4.4594,-4.4584,-4.4575,-4.4592,-4.4594,-4.4613,-4.4597,-4.4547,-4.4545,-4.4543,-4.4542,0,-4.4405,-4.4371,-4.4491,-4.4486,-4.4487,-4.4576,-4.4572,-4.4638,-4.4618,-4.4706,-4.4723,-4.4692,-4.476,-4.4722,-4.4792,-4.4771,-4.4919,-4.4887,-4.4913,-4.4906,-4.502,-4.5011,-4.5393,-4.5441,-4.5083,-4.5086,-4.5089,0,-4.4575,-4.4656,-4.4661,-4.4702,-4.4712,-4.4778,-4.4813,-4.476,-4.4799,-4.4827,-4.489,-4.4952,-4.4998,-4.5113,-4.5097,-4.515,-4.5121,-4.5251,-4.5128,-4.5144,-4.5125,-4.5121,-4.513,-4.5276,-4.5281,-4.5284,-4.5287,0,-4.488,-4.4859,-4.4912,-4.4962,-4.5006,-4.5041,-4.507,-4.5108,-4.5055,-4.5105,-4.5174,-4.521,-4.5282,-4.5346,-4.5392,-4.5397,-4.5335,-4.5326,-4.5355,-4.5374,-4.5386,-4.5383,-4.4983,-4.5317,-4.5314,-4.5312,-4.531,-4.5309,-4.5107,-4.5176,-4.519,-4.5253,-4.527,-4.5299,-4.5362,-4.535,-4.5407,-4.5461,-4.5426,-4.5509,-4.5526,-4.5582,-4.5596,-4.566,-4.5608,-4.5649,-4.566,-4.5672,-4.5688,-4.5375,-4.5668,-4.5667,-4.5666,-4.5666,-4.5665,0,-4.5409,-4.5414,-4.5472,-4.5516,-4.5567,-4.5503,-4.5532,-4.5578,-4.5652,-4.5673,-4.5721,-4.5802,-4.5863,-4.5853,-4.5909,-4.5962,-4.5935,-4.5979,-4.5975,-4.5978,-4.5731,-4.5701,-4.6,-4.6,-4.6,-4.6,-4.6,-4.6,-4.5572,-4.5686,-4.5668,-4.579,-4.5794,-4.5874,-4.5897,-4.5924,-4.5941,-4.6035,-4.6085,-4.6078,-4.6087,-4.6144,-4.6198,-4.6193,-4.6218,-4.6273,-4.6259,-4.6028,-4.5995,-4.5963,-4.5935,-4.6279,-4.6279,-4.65,-4.6502,-4.6504]},{"header":{"parameterUnit":"m.s-1","parameterCategory":1,"la1":30.2991,"la2":30.254,"lo1":-89.0895,"lo2":-89.0444,"dy":0.0017,"dx":0.0017,"nx":28,"ny":28,"refTime":"2023-09-27T21:00:00:Z","depth":0,"parameterNumber":3,"parameterNumberName":"V-component_of_WINDS"},"data":[0,0,0,0,0,0,0,0,0,0,0,0,0,0,0,0,0,0,0,0,0,0,0,0,0,0,0,0,0,0,0,0,0,0,0,0,0,0,0,0,0,0,0,0,0,0,0,0,0,0,0,0,0,0,0,0,0,0,-0.194,-0.1941,0,-0.2031,-0.2032,-0.2033,-0.2084,-0.2084,-0.2084,-0.2084,-0.2176,-0.2178,-0.2181,0,0,0,0,0,0,0,0,0,0,0,0,0,-0.1809,-0.1811,-0.194,-0.1941,-0.1943,-0.2031,-0.2032,-0.2033,-0.2084,-0.2084,-0.2084,-0.2084,-0.2175,-0.2178,-0.2181,0,0,0,0,0,0,0,0,0,0,0,0,0,-0.1879,-0.1812,-0.194,-0.1979,-0.1983,-0.203,-0.2032,-0.2033,-0.2084,-0.2084,-0.2084,-0.2085,-0.2174,-0.2178,-0.2181,-0.2197,0,0,-0.2192,-0.2193,0,0,0,0,0,0,0,0,-0.1875,-0.1884,-0.1972,-0.1976,-0.1981,-0.2046,-0.2019,-0.2088,-0.2084,-0.2045,-0.2084,-0.2085,-0.2133,-0.2139,-0.2156,-0.2201,-0.2205,-0.2192,-0.2194,-0.2195,-0.2196,0,0,0,0,0,0,0,-0.1871,-0.1881,-0.1976,-0.1973,-0.1979,-0.199,-0.2001,-0.2033,-0.2086,-0.2049,-0.2053,-0.2063,-0.2135,-0.2152,-0.2158,-0.2207,-0.2192,-0.2195,-0.2197,-0.2198,-0.2268,-0.2268,0,0,0,0,0,0,-0.186,-0.1876,-0.1973,-0.1979,-0.1928,-0.1993,-0.2004,-0.2025,-0.2086,-0.2096,-0.2062,-0.2065,-0.2146,-0.2154,-0.2162,-0.2184,-0.2195,-0.2199,-0.2201,-0.2268,-0.2268,-0.2268,0,0,0,0,0,0,-0.1857,-0.1868,-0.197,-0.1929,-0.1942,-0.1995,-0.2018,-0.2027,-0.2044,-0.2097,-0.2106,-0.207,-0.2147,-0.2157,-0.2188,-0.2188,-0.22,-0.2203,-0.2269,-0.2268,-0.2268,-0.2229,0,0,0,0,0,0,-0.1853,-0.1867,-0.1874,-0.1928,-0.1944,-0.1995,-0.2018,-0.2028,-0.205,-0.2054,-0.2107,-0.2116,-0.2148,-0.2182,-0.2191,-0.2193,-0.2206,-0.2269,-0.2268,-0.2268,-0.223,-0.2227,-0.2225,0,0,0,0,0,-0.1848,-0.186,-0.1874,-0.1886,-0.1955,-0.1995,-0.2004,-0.2041,-0.205,-0.2057,-0.209,-0.2114,-0.2186,-0.2185,-0.2195,-0.2198,-0.2269,-0.2269,-0.2268,-0.2232,-0.2228,-0.2225,0,0,0,0,0,0,-0.1804,-0.1867,-0.1884,-0.1914,-0.1948,-0.2003,-0.2014,-0.2036,-0.2069,-0.2071,-0.2115,-0.2127,-0.2153,-0.2178,-0.2176,-0.2216,-0.223,-0.2232,-0.2199,-0.2196,-0.2193,-0.2187,-0.2209,0,0,0,0,0,-0.1798,-0.1825,-0.1879,-0.19,-0.1916,-0.1962,-0.198,-0.2006,-0.2043,-0.2058,-0.2094,-0.2129,-0.2159,-0.2179,-0.221,-0.2234,-0.2245,-0.224,-0.2238,-0.2235,-0.2236,-0.225,-0.2248,-0.2266,-0.2266,-0.2266,0,0,-0.1785,-0.1823,-0.1838,-0.1892,-0.1922,-0.1948,-0.1974,-0.2001,-0.2021,-0.2062,-0.2094,-0.212,-0.2162,-0.2189,-0.2203,-0.2212,-0.2233,-0.2234,-0.2232,-0.2235,-0.2249,-0.2247,-0.2246,-0.2266,-0.2266,-0.2266,0,0,-0.1777,-0.1808,-0.1829,-0.1857,-0.1902,-0.1932,-0.1936,-0.1987,-0.2007,-0.2038,-0.2069,-0.2093,-0.2145,-0.2173,-0.2194,-0.2193,-0.2215,-0.2201,-0.2187,-0.22,-0.2198,-0.2197,-0.2197,-0.2196,-0.2202,-0.2202,-0.2202,0,-0.1756,-0.1798,-0.1836,-0.1862,-0.1884,-0.1921,-0.1942,-0.1968,-0.202,-0.2034,-0.2042,-0.2107,-0.2138,-0.2172,-0.2171,-0.2187,-0.2193,-0.2197,-0.2195,-0.2195,-0.2194,-0.2194,-0.2194,-0.22,-0.22,-0.2201,-0.2201,0,-0.1769,-0.1798,-0.1809,-0.1858,-0.1881,-0.1904,-0.1945,-0.1964,-0.1986,-0.2014,-0.2045,-0.2083,-0.2122,-0.2132,-0.2154,-0.2168,-0.2172,-0.2187,-0.2202,-0.219,-0.2191,-0.2191,-0.2197,-0.2198,-0.2199,-0.2199,0,0,-0.1738,-0.1806,-0.181,-0.1832,-0.1882,-0.1905,-0.1928,-0.1966,-0.1981,-0.2015,-0.2035,-0.2077,-0.2091,-0.2114,-0.214,-0.2151,-0.2147,-0.2165,-0.2166,-0.216,-0.2164,-0.2152,-0.2152,-0.2161,-0.2161,-0.2161,-0.216,0,-0.1737,-0.1782,-0.1816,-0.1848,-0.1874,-0.1908,-0.1928,-0.1961,-0.1987,-0.2013,-0.2042,-0.207,-0.2087,-0.2101,-0.2113,-0.2145,-0.2148,-0.2145,-0.218,-0.2181,-0.217,-0.2152,-0.2141,-0.2139,-0.2161,-0.2161,-0.2161,0,-0.1743,-0.1775,-0.1809,-0.1855,-0.1867,-0.1885,-0.1921,-0.1945,-0.1982,-0.2,-0.2025,-0.2051,-0.2076,-0.2087,-0.2122,-0.2119,-0.2135,-0.2153,-0.2153,-0.2159,-0.2171,-0.2158,-0.2139,-0.2138,-0.2162,-0.2162,-0.2161,0,-0.1716,-0.1768,-0.1795,-0.1813,-0.1867,-0.1879,-0.1902,-0.1939,-0.1958,-0.199,-0.2003,-0.2036,-0.2055,-0.208,-0.2114,-0.2119,-0.2145,-0.2159,-0.216,-0.2159,-0.2166,-0.2165,-0.2149,-0.2174,-0.2174,-0.2174,-0.2174,0,-0.1712,-0.1732,-0.1784,-0.1801,-0.1823,-0.1861,-0.1881,-0.1907,-0.1939,-0.1961,-0.1992,-0.2011,-0.2054,-0.2078,-0.2105,-0.2129,-0.2137,-0.2152,-0.2159,-0.215,-0.2148,-0.2162,-0.2164,-0.2174,-0.2174,-0.2174,-0.2174,0,-0.1688,-0.1724,-0.1755,-0.1803,-0.1816,-0.183,-0.1871,-0.1888,-0.1915,-0.1941,-0.195,-0.1992,-0.2022,-0.2057,-0.2099,-0.2116,-0.2139,-0.2148,-0.2126,-0.2131,-0.213,-0.213,-0.2124,-0.2125,-0.2148,-0.2147,-0.2147,0,-0.1684,-0.17,-0.1749,-0.1765,-0.1788,-0.1814,-0.1834,-0.1871,-0.1891,-0.1932,-0.1944,-0.1975,-0.2003,-0.2049,-0.2083,-0.2115,-0.2126,-0.2121,-0.2131,-0.2121,-0.2126,-0.2125,-0.2127,-0.2119,-0.2119,-0.2119,-0.2118,0,-0.1672,-0.1688,-0.1717,-0.175,-0.1773,-0.1801,-0.1831,-0.1842,-0.1885,-0.1905,-0.1936,-0.1957,-0.1999,-0.203,-0.2065,-0.2088,-0.211,-0.2114,-0.2117,-0.2108,-0.2095,-0.2102,-0.212,-0.2115,-0.2115,-0.2116,-0.2116,-0.2116,-0.1658,-0.1674,-0.171,-0.174,-0.1766,-0.1792,-0.181,-0.1838,-0.1865,-0.1902,-0.1921,-0.1951,-0.1985,-0.2035,-0.2057,-0.208,-0.2088,-0.2091,-0.2092,-0.2092,-0.209,-0.209,-0.2087,-0.2087,-0.2087,-0.2087,-0.2087,0,-0.1649,-0.1674,-0.17,-0.174,-0.1763,-0.1781,-0.1814,-0.1832,-0.1858,-0.1888,-0.1914,-0.1948,-0.1978,-0.2014,-0.2045,-0.2057,-0.2068,-0.2064,-0.2065,-0.2069,-0.2081,-0.2076,-0.2055,-0.2055,-0.2055,-0.2055,-0.2055,-0.2055,-0.1647,-0.1673,-0.1693,-0.1732,-0.1756,-0.1786,-0.1803,-0.1827,-0.1851,-0.1889,-0.1913,-0.1936,-0.1968,-0.2002,-0.2029,-0.2039,-0.2049,-0.2043,-0.2055,-0.2066,-0.2069,-0.2071,-0.2067,-0.2045,-0.2045,-0.2042,-0.2042,-0.2042]}]]